When you browse on this site, cookies collect data to enhance your experience and personalize the content and advertising you see.
Visit our Privacy Policy to learn more. By continuing to use the site, you agree to this use of cookies and data.
  • In Latvia
  • List of Countries
  • For 7 days
  • Water Temperature
  • Weather Map
  • Weather Widgets
  • user-avatar
    Login

    Hourly Weather Ravninnyy

    Today, 22 August, Thursday

    Time Temperature Precipitation Wind Pressure Humidity
    00:00 +28°C° 0 mm 5 mps 748 mmHg 46%
    01:00 +27°C° 0 mm 5 mps 749 mmHg 49%
    02:00 +26°C° 0 mm 5 mps 749 mmHg 52%
    03:00 +26°C° 0 mm 5 mps 749 mmHg 55%
    04:00 +25°C° 0 mm 4 mps 749 mmHg 58%
    05:00 +25°C° 0 mm 4 mps 749 mmHg 60%
    06:00 +23°C° 0 mm 4 mps 748 mmHg 63%
    07:00 +26°C° 0 mm 5 mps 749 mmHg 58%
    08:00 +28°C° 0 mm 5 mps 749 mmHg 52%
    09:00 +30°C° 0 mm 5 mps 749 mmHg 47%
    10:00 +33°C° 0 mm 5 mps 749 mmHg 42%
    11:00 +34°C° 0 mm 5 mps 749 mmHg 37%
    12:00 +36°C° 0 mm 5 mps 749 mmHg 32%
    13:00 +37°C° 0 mm 5 mps 749 mmHg 30%
    14:00 +37°C° 0 mm 5 mps 749 mmHg 28%
    15:00 +39°C° 0 mm 5 mps 749 mmHg 25%
    16:00 +37°C° 0 mm 5 mps 749 mmHg 26%
    17:00 +36°C° 0 mm 4 mps 748 mmHg 27%
    18:00 +36°C° 0 mm 4 mps 748 mmHg 28%
    19:00 +34°C° 0 mm 4 mps 748 mmHg 32%
    20:00 +32°C° 0 mm 4 mps 749 mmHg 36%
    21:00 +29°C° 0 mm 4 mps 749 mmHg 40%
    22:00 +28°C° 0 mm 4 mps 749 mmHg 43%
    23:00 +27°C° 0 mm 4 mps 749 mmHg 46%

    Tomorrow, 23 August, Friday

    Time Temperature Precipitation Wind Pressure Humidity
    00:00 +26°C° 0 mm 4 mps 749 mmHg 48%
    01:00 +26°C° 0 mm 4 mps 749 mmHg 49%
    02:00 +26°C° 0 mm 4 mps 749 mmHg 49%
    03:00 +25°C° 0 mm 4 mps 749 mmHg 50%
    04:00 +25°C° 0 mm 4 mps 749 mmHg 50%
    05:00 +25°C° 0 mm 5 mps 749 mmHg 50%
    06:00 +25°C° 0 mm 5 mps 749 mmHg 50%
    07:00 +26°C° 0 mm 5 mps 749 mmHg 46%
    08:00 +28°C° 0 mm 6 mps 749 mmHg 42%
    09:00 +30°C° 0 mm 6 mps 750 mmHg 38%
    10:00 +32°C° 0 mm 6 mps 750 mmHg 35%
    11:00 +34°C° 0 mm 6 mps 750 mmHg 32%
    12:00 +36°C° 0 mm 6 mps 750 mmHg 29%
    13:00 +36°C° 0 mm 6 mps 749 mmHg 28%
    14:00 +38°C° 0 mm 6 mps 749 mmHg 27%
    15:00 +38°C° 0 mm 6 mps 749 mmHg 26%
    16:00 +36°C° 0 mm 6 mps 749 mmHg 28%
    17:00 +36°C° 0 mm 5 mps 749 mmHg 29%
    18:00 +35°C° 0 mm 5 mps 749 mmHg 31%
    19:00 +33°C° 0 mm 5 mps 749 mmHg 35%
    20:00 +32°C° 0 mm 5 mps 749 mmHg 38%
    21:00 +29°C° 0 mm 5 mps 750 mmHg 42%
    22:00 +28°C° 0 mm 5 mps 750 mmHg 44%
    23:00 +27°C° 0 mm 5 mps 749 mmHg 46%

    Day after tomorrow, 24 August, Saturday

    Time Temperature Precipitation Wind Pressure Humidity
    00:00 +27°C° 0 mm 5 mps 749 mmHg 48%
    01:00 +26°C° 0 mm 5 mps 749 mmHg 49%
    02:00 +26°C° 0 mm 5 mps 749 mmHg 51%
    03:00 +25°C° 0 mm 5 mps 749 mmHg 52%
    04:00 +25°C° 0 mm 5 mps 749 mmHg 54%
    05:00 +24°C° 0 mm 6 mps 749 mmHg 57%
    06:00 +23°C° 0 mm 6 mps 749 mmHg 59%
    07:00 +26°C° 0.1 mm 6 mps 750 mmHg 56%
    08:00 +27°C° 0.1 mm 6 mps 750 mmHg 54%
    09:00 +28°C° 0.1 mm 6 mps 750 mmHg 52%
    10:00 +29°C° 0 mm 7 mps 750 mmHg 46%
    11:00 +32°C° 0 mm 7 mps 750 mmHg 41%
    12:00 +34°C° 0 mm 7 mps 750 mmHg 35%
    13:00 +35°C° 0 mm 7 mps 750 mmHg 33%
    14:00 +35°C° 0 mm 7 mps 750 mmHg 31%
    15:00 +36°C° 0 mm 7 mps 750 mmHg 30%
    16:00 +35°C° 0 mm 6 mps 749 mmHg 30%
    17:00 +35°C° 0 mm 5 mps 749 mmHg 30%
    18:00 +34°C° 0 mm 4 mps 749 mmHg 31%
    19:00 +33°C° 0 mm 4 mps 749 mmHg 34%
    20:00 +32°C° 0 mm 4 mps 749 mmHg 37%
    21:00 +29°C° 0 mm 4 mps 749 mmHg 41%
    22:00 +29°C° 0 mm 4 mps 749 mmHg 42%
    23:00 +28°C° 0 mm 4 mps 749 mmHg 43%

    25 August, Sunday

    Time Temperature Precipitation Wind Pressure Humidity
    00:00 +28°C° 0 mm 4 mps 749 mmHg 44%
    01:00 +27°C° 0 mm 4 mps 749 mmHg 45%
    02:00 +27°C° 0 mm 4 mps 749 mmHg 47%
    03:00 +26°C° 0 mm 5 mps 749 mmHg 49%
    04:00 +26°C° 0 mm 5 mps 749 mmHg 51%
    05:00 +26°C° 0 mm 5 mps 749 mmHg 53%
    06:00 +25°C° 0 mm 5 mps 749 mmHg 55%
    07:00 +26°C° 0 mm 6 mps 749 mmHg 51%
    08:00 +27°C° 0 mm 6 mps 749 mmHg 48%
    09:00 +29°C° 0 mm 6 mps 749 mmHg 44%
    10:00 +30°C° 0 mm 6 mps 749 mmHg 40%
    11:00 +32°C° 0 mm 6 mps 749 mmHg 36%
    12:00 +33°C° 0 mm 6 mps 749 mmHg 31%
    13:00 +32°C° 0 mm 6 mps 749 mmHg 32%
    14:00 +32°C° 0 mm 6 mps 749 mmHg 33%
    15:00 +30°C° 0 mm 6 mps 749 mmHg 34%
    16:00 +29°C° 0 mm 6 mps 749 mmHg 38%
    17:00 +28°C° 0 mm 7 mps 749 mmHg 41%
    18:00 +27°C° 0 mm 7 mps 749 mmHg 45%
    19:00 +27°C° 0 mm 6 mps 749 mmHg 46%
    20:00 +26°C° 0 mm 5 mps 749 mmHg 48%
    21:00 +25°C° 0 mm 4 mps 749 mmHg 50%
    22:00 +25°C° 0 mm 5 mps 749 mmHg 48%
    23:00 +26°C° 0 mm 5 mps 750 mmHg 46%

    26 August, Monday

    Time Temperature Precipitation Wind Pressure Humidity
    00:00 +26°C° 0 mm 5 mps 750 mmHg 44%
    01:00 +26°C° 0 mm 6 mps 750 mmHg 46%
    02:00 +26°C° 0 mm 6 mps 750 mmHg 49%
    03:00 +24°C° 0 mm 6 mps 750 mmHg 51%
    04:00 +24°C° 0 mm 6 mps 750 mmHg 53%
    05:00 +24°C° 0 mm 6 mps 750 mmHg 54%
    06:00 +23°C° 0 mm 6 mps 750 mmHg 56%
    07:00 +23°C° 0 mm 6 mps 751 mmHg 55%
    08:00 +23°C° 0 mm 5 mps 751 mmHg 54%
    09:00 +23°C° 0 mm 5 mps 752 mmHg 53%
    10:00 +26°C° 0 mm 5 mps 752 mmHg 48%
    11:00 +28°C° 0 mm 5 mps 752 mmHg 43%
    12:00 +30°C° 0 mm 5 mps 752 mmHg 38%
    13:00 +30°C° 0 mm 5 mps 752 mmHg 37%
    14:00 +30°C° 0 mm 5 mps 752 mmHg 36%
    15:00 +30°C° 0 mm 5 mps 753 mmHg 35%
    16:00 +30°C° 0 mm 5 mps 753 mmHg 35%
    17:00 +30°C° 0 mm 5 mps 753 mmHg 34%
    18:00 +29°C° 0 mm 5 mps 753 mmHg 33%
    19:00 +28°C° 0 mm 6 mps 753 mmHg 36%
    20:00 +26°C° 0 mm 6 mps 753 mmHg 39%
    21:00 +23°C° 0 mm 6 mps 754 mmHg 42%
    22:00 +23°C° 0 mm 5 mps 754 mmHg 42%
    23:00 +22°C° 0 mm 5 mps 754 mmHg 43%

    27 August, Tuesday

    Time Temperature Precipitation Wind Pressure Humidity
    00:00 +21°C° 0 mm 5 mps 755 mmHg 43%
    01:00 +20°C° 0 mm 5 mps 755 mmHg 46%
    02:00 +20°C° 0 mm 5 mps 755 mmHg 49%
    03:00 +19°C° 0 mm 4 mps 755 mmHg 52%
    04:00 +18°C° 0 mm 4 mps 755 mmHg 55%
    05:00 +17°C° 0 mm 5 mps 755 mmHg 57%
    06:00 +16°C° 0 mm 5 mps 755 mmHg 60%
    07:00 +19°C° 0 mm 5 mps 755 mmHg 55%
    08:00 +21°C° 0 mm 6 mps 756 mmHg 51%
    09:00 +22°C° 0 mm 6 mps 756 mmHg 46%
    10:00 +24°C° 0 mm 6 mps 756 mmHg 42%
    11:00 +26°C° 0 mm 6 mps 756 mmHg 38%
    12:00 +28°C° 0 mm 6 mps 756 mmHg 33%
    13:00 +28°C° 0 mm 6 mps 755 mmHg 32%
    14:00 +28°C° 0 mm 6 mps 755 mmHg 30%
    15:00 +29°C° 0 mm 6 mps 755 mmHg 28%
    16:00 +28°C° 0 mm 6 mps 755 mmHg 28%
    17:00 +27°C° 0 mm 5 mps 755 mmHg 28%
    18:00 +26°C° 0 mm 5 mps 754 mmHg 28%
    19:00 +25°C° 0 mm 5 mps 754 mmHg 28%
    20:00 +22°C° 0 mm 4 mps 755 mmHg 29%
    21:00 +20°C° 0 mm 4 mps 755 mmHg 30%
    22:00 +19°C° 0 mm 4 mps 755 mmHg 31%
    23:00 +19°C° 0 mm 4 mps 755 mmHg 32%
    Show more